.
WxDataArchive / Data Records for 2008-07-08
2008-07-07 July 2008 2008-07-09

Data Records for Tuesday, 08 July 2008

Time	Temp	Chill	HIndex	Humid	Dewpt	 Wind 	HiWind	WindDir	Rain 	Barom 
-----	----	-----	------	-----	-----	------	------	-------	-----	----- 
00:00	74.4	74.4	74.4	77	66.7	0	2	248	0.00	29.859 
00:05	74.4	74.4	74.4	77	66.7	0	1	248	0.00	29.858 
00:10	74.4	74.4	74.4	77	66.7	0	1	248	0.00	29.858 
00:15	74.2	74.2	74.2	77	66.5	0	1	248	0.00	29.857 
00:20	74.2	74.2	74.2	77	66.5	0	1	248	0.00	29.857 
00:25	74.2	74.2	74.2	77	66.5	0	2	248	0.00	29.857 
00:30	74.2	74.2	74.2	77	66.5	0	2	248	0.00	29.853 
00:35	74.0	74.0	74.0	77	66.3	1	4	248	0.00	29.848 
00:40	74.0	74.0	74.0	77	66.3	0	2	248	0.00	29.848 
00:45	74.0	74.0	74.0	77	66.3	1	3	225	0.00	29.845 
00:50	74.0	74.0	74.0	77	66.3	0	2	315	0.00	29.845 
00:55	73.9	73.9	73.9	77	66.2	0	3	292	0.00	29.844 
01:00	73.9	73.9	73.9	77	66.2	1	2	292	0.00	29.843 
01:05	74.0	74.0	74.0	77	66.3	0	3	292	0.00	29.843 
01:10	73.9	73.9	73.9	77	66.2	1	3	248	0.00	29.845 
01:15	73.9	73.9	73.9	77	66.2	1	3	225	0.00	29.845 
01:20	73.9	73.9	73.9	77	66.2	1	4	225	0.00	29.844 
01:25	73.9	73.9	73.9	78	66.6	0	2	225	0.00	29.845 
01:30	73.9	73.9	73.9	78	66.6	0	3	225	0.00	29.847 
01:35	73.9	73.9	73.9	79	67.0	0	2	225	0.00	29.845 
01:40	73.7	73.7	73.7	79	66.8	1	3	248	0.00	29.844 
01:45	73.7	73.7	73.7	80	67.1	0	2	248	0.00	29.842 
01:50	73.7	73.7	73.7	80	67.1	0	3	248	0.00	29.836 
01:55	73.5	73.5	73.5	81	67.3	0	3	248	0.00	29.829 
02:00	73.5	73.5	73.5	81	67.3	0	2	248	0.00	29.828 
02:05	73.5	73.5	73.5	82	67.7	1	2	248	0.00	29.826 
02:10	73.5	73.5	73.5	82	67.7	0	2	248	0.00	29.822 
02:15	73.5	73.5	73.5	83	68.0	1	3	270	0.00	29.819 
02:20	73.5	73.5	73.5	83	68.0	1	4	248	0.00	29.819 
02:25	73.5	73.5	73.5	83	68.0	0	5	248	0.00	29.816 
02:30	73.3	73.3	73.3	84	68.2	1	5	248	0.00	29.813 
02:35	73.3	73.3	73.3	84	68.2	1	4	248	0.00	29.813 
02:40	73.3	73.3	73.3	84	68.2	1	3	248	0.00	29.812 
02:45	73.2	73.2	73.2	85	68.4	1	2	248	0.00	29.812 
02:50	73.2	73.2	73.2	85	68.4	1	4	248	0.00	29.810 
02:55	73.2	73.2	73.2	85	68.4	0	4	248	0.00	29.810 
03:00	73.0	73.0	73.0	86	68.6	1	3	248	0.00	29.811 
03:05	73.0	73.0	73.0	86	68.6	1	2	248	0.00	29.811 
03:10	73.0	73.0	73.0	86	68.6	1	5	248	0.00	29.810 
03:15	73.2	73.2	73.2	86	68.7	1	5	270	0.00	29.809 
03:20	73.0	73.0	73.0	86	68.6	1	5	248	0.00	29.810 
03:25	73.0	73.0	73.0	87	68.9	0	2	248	0.00	29.811 
03:30	73.0	73.0	73.0	87	68.9	1	3	248	0.00	29.809 
03:35	73.0	73.0	73.0	87	68.9	1	3	225	0.00	29.810 
03:40	72.8	72.8	72.8	87	68.7	0	2	248	0.00	29.808 
03:45	72.8	72.8	72.8	88	69.0	1	4	248	0.00	29.806 
03:50	72.8	72.8	72.8	88	69.0	1	4	270	0.00	29.803 
03:55	72.8	72.8	72.8	88	69.0	1	4	270	0.00	29.807 
04:00	72.8	72.8	72.8	88	69.0	1	5	225	0.00	29.808 
04:05	73.0	73.0	73.0	88	69.2	1	3	270	0.00	29.809 
04:10	73.0	73.0	73.0	88	69.2	1	4	248	0.00	29.811 
04:15	73.0	73.0	73.0	88	69.2	1	3	248	0.00	29.811 
04:20	73.0	73.0	73.0	88	69.2	1	4	248	0.00	29.811 
04:25	73.0	73.0	73.0	88	69.2	1	5	248	0.00	29.811 
04:30	73.0	73.0	73.0	88	69.2	1	3	270	0.00	29.812 
04:35	73.0	73.0	73.0	88	69.2	1	3	248	0.00	29.811 
04:40	73.0	73.0	73.0	88	69.2	1	4	248	0.00	29.810 
04:45	73.0	73.0	73.0	88	69.2	0	3	248	0.00	29.807 
04:50	73.2	73.2	73.2	87	69.1	1	3	270	0.00	29.806 
04:55	73.2	73.2	73.2	87	69.1	1	3	270	0.00	29.803 
05:00	73.2	73.2	73.2	87	69.1	0	2	315	0.00	29.800 
05:05	73.0	73.0	73.0	87	68.9	1	5	248	0.00	29.801 
05:10	73.0	73.0	73.0	87	68.9	1	3	225	0.00	29.799 
05:15	73.0	73.0	73.0	88	69.2	1	4	248	0.00	29.800 
05:20	73.0	73.0	73.0	88	69.2	1	3	248	0.00	29.806 
05:25	72.8	72.8	72.8	88	69.0	1	3	225	0.00	29.809 
05:30	72.8	72.8	72.8	88	69.0	1	2	225	0.00	29.814 
05:35	73.0	73.0	73.0	88	69.2	1	4	248	0.00	29.816 
05:40	73.2	73.2	73.2	88	69.4	1	4	270	0.00	29.815 
05:45	73.3	73.3	73.3	87	69.2	1	3	248	0.00	29.817 
05:50	73.3	73.3	73.3	87	69.2	0	4	248	0.00	29.814 
05:55	73.5	73.5	73.5	87	69.4	1	3	248	0.00	29.814 
06:00	73.5	73.5	73.5	87	69.4	0	3	248	0.00	29.813 
06:05	73.5	73.5	73.5	87	69.4	1	4	248	0.00	29.811 
06:10	73.5	73.5	73.5	87	69.4	1	3	270	0.00	29.812 
06:15	73.5	73.5	73.5	87	69.4	0	2	270	0.00	29.811 
06:20	73.5	73.5	73.5	87	69.4	0	1	270	0.00	29.811 
06:25	73.5	73.5	73.5	87	69.4	0	1	270	0.00	29.811 
06:30	73.5	73.5	73.5	87	69.4	1	4	248	0.00	29.809 
06:35	73.5	73.5	73.5	87	69.4	1	4	248	0.00	29.811 
06:40	73.7	73.7	73.7	87	69.6	0	2	225	0.00	29.812 
06:45	74.0	74.0	74.0	86	69.5	1	3	270	0.00	29.813 
06:50	74.4	74.4	74.4	86	69.9	0	1	158	0.00	29.812 
06:55	74.7	74.7	74.7	85	69.9	1	4	225	0.00	29.812 
07:00	75.3	75.3	75.5	84	70.1	1	3	225	0.00	29.813 
07:05	75.4	75.4	75.8	83	69.9	2	6	248	0.00	29.814 
07:10	76.0	76.0	76.8	82	70.1	1	4	248	0.00	29.814 
07:15	76.1	76.1	77.0	82	70.2	1	4	248	0.00	29.813 
07:20	76.5	76.5	77.7	81	70.2	1	3	225	0.00	29.813 
07:25	76.3	76.3	77.4	81	70.0	1	5	270	0.00	29.812 
07:30	76.1	76.1	77.1	81	69.8	1	4	270	0.00	29.812 
07:35	76.1	76.1	77.0	82	70.2	0	2	248	0.00	29.813 
07:40	76.1	76.1	77.0	82	70.2	1	5	270	0.00	29.814 
07:45	76.1	76.1	77.0	82	70.2	1	4	248	0.00	29.816 
07:50	76.3	76.3	77.3	82	70.4	1	3	248	0.00	29.814 
07:55	76.3	76.3	77.3	82	70.4	1	4	270	0.00	29.814 
08:00	76.3	76.3	77.3	82	70.4	1	5	248	0.00	29.814 
08:05	76.5	76.5	77.7	82	70.6	1	3	248	0.00	29.815 
08:10	76.5	76.5	77.7	82	70.6	1	3	248	0.00	29.814 
08:15	76.5	76.5	77.7	82	70.6	1	4	270	0.00	29.814 
08:20	76.7	76.7	78.0	82	70.8	1	3	248	0.00	29.813 
08:25	77.0	77.0	78.5	81	70.7	2	5	248	0.00	29.812 
08:30	77.6	77.6	79.6	81	71.3	1	4	248	0.00	29.810 
08:35	78.1	78.1	80.5	79	71.0	3	6	270	0.00	29.809 
08:40	78.6	78.6	81.2	77	70.8	3	7	270	0.00	29.806 
08:45	79.2	79.2	82.4	78	71.7	1	3	248	0.00	29.808 
08:50	79.6	79.6	83.1	77	71.7	1	4	248	0.00	29.808 
08:55	79.9	79.9	83.5	76	71.6	1	4	248	0.00	29.809 
09:00	80.1	80.1	83.8	75	71.4	1	4	270	0.00	29.808 
09:05	80.1	80.1	83.9	76	71.8	2	6	248	0.00	29.811 
09:10	79.8	79.8	83.3	76	71.5	2	4	248	0.00	29.812 
09:15	79.4	79.4	82.6	76	71.2	1	4	270	0.00	29.815 
09:20	79.6	79.6	83.1	77	71.7	2	5	248	0.00	29.812 
09:25	80.1	80.1	83.9	76	71.8	2	5	270	0.00	29.812 
09:30	80.9	80.9	85.5	76	72.6	1	4	292	0.00	29.807 
09:35	81.4	81.4	86.3	75	72.7	2	5	248	0.00	29.807 
09:40	81.4	81.4	85.9	73	71.9	3	6	248	0.00	29.809 
09:45	81.6	81.6	86.3	73	72.1	2	5	270	0.00	29.807 
09:50	81.6	81.6	86.3	73	72.1	2	7	270	0.00	29.802 
09:55	81.6	81.6	86.5	74	72.5	2	5	248	0.00	29.802 
10:00	82.0	82.0	87.1	73	72.5	2	4	270	0.00	29.805 
10:05	82.2	82.2	87.3	72	72.2	2	4	270	0.00	29.806 
10:10	82.0	82.0	87.1	73	72.5	2	4	270	0.00	29.808 
10:15	81.8	81.8	86.5	72	71.9	1	3	292	0.00	29.808 
10:20	81.6	81.6	86.1	72	71.7	2	4	248	0.00	29.808 
10:25	81.6	81.6	86.3	73	72.1	2	4	270	0.00	29.806 
10:30	81.8	81.8	86.7	73	72.3	1	3	248	0.00	29.800 
10:35	81.8	81.8	86.7	73	72.3	2	5	248	0.00	29.800 
10:40	81.8	81.8	86.5	72	71.9	2	5	248	0.00	29.798 
10:45	81.8	81.8	86.5	72	71.9	1	3	270	0.00	29.795 
10:50	82.0	82.0	87.1	73	72.5	1	3	270	0.00	29.788 
10:55	82.0	82.0	87.1	73	72.5	1	3	68	0.00	29.787 
11:00	81.6	81.6	86.3	73	72.1	1	4	248	0.00	29.792 
11:05	81.4	81.4	85.9	73	71.9	2	6	270	0.00	29.794 
11:10	81.6	81.6	86.5	74	72.5	1	4	248	0.00	29.785 
11:15	81.8	81.8	86.7	73	72.3	1	5	292	0.00	29.781 
11:20	82.0	82.0	87.1	73	72.5	1	2	248	0.00	29.779 
11:25	82.2	82.2	87.5	73	72.7	2	5	270	0.00	29.778 
11:30	82.8	82.8	88.0	70	72.0	2	6	270	0.00	29.770 
11:35	83.4	83.4	89.2	70	72.6	2	3	270	0.00	29.769 
11:40	83.8	83.8	89.7	69	72.5	2	5	248	0.00	29.766 
11:45	83.8	83.8	89.7	69	72.5	3	6	270	0.00	29.767 
11:50	84.0	84.0	90.5	70	73.1	2	5	248	0.00	29.764 
11:55	84.5	84.5	91.2	69	73.2	2	7	68	0.00	29.760 
12:00	84.7	84.7	91.7	69	73.4	2	6	270	0.00	29.754 
12:05	84.1	84.1	90.0	68	72.4	2	7	270	0.00	29.750 
12:10	84.1	84.1	89.7	67	71.9	2	7	248	0.00	29.749 
12:15	84.3	84.3	90.5	68	72.6	2	5	270	0.00	29.751 
12:20	84.1	84.1	90.4	69	72.8	2	6	248	0.00	29.749 
12:25	84.0	84.0	89.8	68	72.3	2	5	292	0.00	29.757 
12:30	83.4	83.4	88.9	69	72.1	2	6	270	0.00	29.774 
12:35	79.4	79.4	81.6	65	66.6	6	12	270	0.04	29.843 
12:40	72.3	72.3	72.3	80	65.8	4	9	270	0.20	29.832 
12:45	69.8	69.8	69.8	87	65.7	2	5	270	0.14	29.811 
12:50	68.9	68.9	68.9	90	65.8	1	4	270	0.17	29.797 
12:55	68.6	68.6	68.6	92	66.2	2	6	270	0.16	29.809 
13:00	68.6	68.6	68.6	93	66.5	3	6	270	0.14	29.796 
13:05	68.9	68.9	68.9	94	67.1	1	4	292	0.03	29.794 
13:10	69.3	69.3	69.3	95	67.8	3	6	270	0.12	29.807 
13:15	69.8	69.8	69.8	95	68.3	2	7	270	0.14	29.786 
13:20	69.9	69.9	69.9	95	68.4	2	5	270	0.00	29.790 
13:25	69.9	69.9	69.9	96	68.7	0	2	270	0.01	29.791 
13:30	70.1	70.1	70.1	96	68.9	0	1	270	0.00	29.791 
13:35	70.4	70.4	70.4	96	69.2	0	1	270	0.00	29.791 
13:40	70.8	70.8	70.8	96	69.6	0	1	270	0.01	29.793 
13:45	71.1	71.1	71.1	96	69.9	0	1	270	0.00	29.797 
13:50	71.3	71.3	71.3	96	70.1	0	1	270	0.00	29.804 
13:55	71.3	71.3	71.3	96	70.1	0	2	225	0.00	29.801 
14:00	71.3	71.3	71.3	96	70.1	0	1	225	0.00	29.791 
14:05	71.3	71.3	71.3	96	70.1	0	0	---	0.00	29.784 
14:10	71.5	71.5	71.5	96	70.3	0	0	---	0.00	29.782 
14:15	71.5	71.5	71.5	96	70.3	0	0	---	0.00	29.789 
14:20	71.6	71.6	71.6	96	70.4	0	0	---	0.00	29.791 
14:25	71.8	71.8	71.8	96	70.6	0	0	---	0.00	29.781 
14:30	71.8	71.8	71.8	96	70.6	0	0	---	0.00	29.776 
14:35	71.6	71.6	71.6	96	70.4	0	0	---	0.00	29.776 
14:40	71.5	71.5	71.5	96	70.3	0	1	225	0.00	29.782 
14:45	71.5	71.5	71.5	96	70.3	0	1	225	0.00	29.785 
14:50	71.6	71.6	71.6	96	70.4	0	1	225	0.00	29.780 
14:55	71.6	71.6	71.6	96	70.4	0	1	225	0.00	29.778 
15:00	72.0	72.0	72.0	96	70.8	0	1	225	0.00	29.787 
15:05	72.1	72.1	72.1	96	70.9	0	1	225	0.00	29.788 
15:10	72.5	72.5	72.5	96	71.3	0	1	225	0.00	29.781 
15:15	72.7	72.7	72.7	96	71.5	0	1	225	0.00	29.778 
15:20	72.8	72.8	72.8	96	71.6	0	0	---	0.00	29.774 
15:25	72.8	72.8	72.8	96	71.6	0	0	---	0.00	29.774 
15:30	73.3	73.3	73.3	96	72.1	0	0	---	0.00	29.774 
15:35	74.0	74.0	74.0	96	72.8	0	1	225	0.00	29.772 
15:40	74.6	74.6	74.6	96	73.4	0	1	225	0.00	29.771 
15:45	74.7	74.7	74.7	96	73.5	0	1	248	0.00	29.768 
15:50	75.4	75.4	73.9	96	74.2	0	1	248	0.00	29.765 
15:55	76.0	76.0	75.3	96	74.8	0	1	248	0.00	29.763 
16:00	76.1	76.1	75.6	96	74.9	0	2	248	0.00	29.762 
16:05	76.5	76.5	76.7	95	75.0	0	2	248	0.00	29.756 
16:10	76.8	76.8	77.5	94	74.9	0	2	248	0.00	29.754 
16:15	77.0	77.0	78.0	93	74.8	0	2	248	0.00	29.751 
16:20	77.0	77.0	78.2	89	73.5	1	3	248	0.00	29.749 
16:25	77.4	77.4	79.2	86	72.9	1	3	315	0.00	29.747 
16:30	78.3	78.3	81.0	84	73.1	1	3	315	0.00	29.744 
16:35	79.2	79.2	82.9	83	73.6	0	2	315	0.00	29.739 
16:40	79.8	79.8	83.9	81	73.4	1	2	270	0.00	29.737 
16:45	80.3	80.3	84.7	79	73.2	0	2	270	0.00	29.736 
16:50	80.7	80.7	85.4	78	73.2	0	2	248	0.00	29.731 
16:55	81.1	81.1	86.1	77	73.2	0	1	248	0.00	29.727 
17:00	81.4	81.4	86.7	77	73.5	0	2	248	0.00	29.724 
17:05	81.4	81.4	86.5	76	73.1	0	2	248	0.00	29.721 
17:10	81.2	81.2	85.7	74	72.1	1	3	248	0.00	29.721 
17:15	81.2	81.2	85.7	74	72.1	0	2	248	0.00	29.720 
17:20	81.4	81.4	86.5	76	73.1	0	1	248	0.00	29.720 
17:25	81.4	81.4	86.3	75	72.7	0	1	248	0.00	29.719 
17:30	81.6	81.6	86.7	75	72.9	0	2	248	0.00	29.718 
17:35	81.6	81.6	86.3	73	72.1	0	2	248	0.00	29.717 
17:40	81.6	81.6	86.5	74	72.5	0	2	248	0.00	29.717 
17:45	81.6	81.6	86.5	74	72.5	0	2	248	0.00	29.717 
17:50	81.8	81.8	86.7	73	72.3	1	2	248	0.00	29.715 
17:55	81.8	81.8	86.7	73	72.3	0	2	248	0.00	29.716 
18:00	81.8	81.8	86.7	73	72.3	0	1	248	0.00	29.714 
18:05	81.6	81.6	86.3	73	72.1	0	1	248	0.00	29.716 
18:10	81.4	81.4	85.9	73	71.9	1	2	248	0.00	29.716 
18:15	81.4	81.4	85.7	72	71.5	1	2	225	0.00	29.718 
18:20	81.4	81.4	85.1	69	70.2	1	3	248	0.00	29.719 
18:25	81.4	81.4	85.1	69	70.2	1	3	248	0.00	29.720 
18:30	81.6	81.6	85.1	67	69.6	1	2	248	0.00	29.720 
18:35	81.6	81.6	85.1	67	69.6	1	3	270	0.00	29.718 
18:40	81.8	81.8	85.3	66	69.3	1	2	270	0.00	29.719 
18:45	81.8	81.8	85.1	65	68.9	1	3	248	0.00	29.719 
18:50	81.8	81.8	85.1	65	68.9	1	2	248	0.00	29.718 
18:55	81.6	81.6	84.7	65	68.7	1	3	225	0.00	29.719 
19:00	81.4	81.4	84.4	65	68.5	1	3	225	0.00	29.719 
19:05	81.2	81.2	84.3	66	68.7	1	3	225	0.00	29.722 
19:10	81.1	81.1	84.3	67	69.1	1	2	270	0.00	29.725 
19:15	80.7	80.7	83.7	67	68.7	1	3	270	0.00	29.728 
19:20	80.5	80.5	83.3	67	68.5	1	3	270	0.00	29.733 
19:25	80.5	80.5	83.3	67	68.5	1	4	248	0.00	29.734 
19:30	80.3	80.3	83.0	67	68.3	0	2	248	0.00	29.734 
19:35	80.3	80.3	83.2	68	68.8	0	1	248	0.00	29.735 
19:40	79.9	79.9	82.6	68	68.4	0	1	248	0.00	29.734 
19:45	79.8	79.8	82.5	69	68.7	0	2	248	0.00	29.735 
19:50	79.8	79.8	82.5	69	68.7	0	1	248	0.00	29.735 
19:55	79.6	79.6	82.3	70	68.9	0	1	248	0.00	29.733 
20:00	79.4	79.4	82.0	70	68.7	0	1	248	0.00	29.733 
20:05	79.4	79.4	82.0	70	68.7	0	1	248	0.00	29.730 
20:10	79.2	79.2	81.8	71	69.0	0	2	248	0.00	29.729 
20:15	79.2	79.2	81.8	71	69.0	0	1	248	0.00	29.730 
20:20	79.0	79.0	81.6	72	69.2	0	0	---	0.00	29.734 
20:25	78.8	78.8	81.3	72	69.0	0	1	248	0.00	29.734 
20:30	78.8	78.8	81.3	72	69.0	0	1	248	0.00	29.737 
20:35	78.8	78.8	81.3	72	69.0	0	1	248	0.00	29.741 
20:40	78.8	78.8	81.3	73	69.4	0	0	---	0.00	29.746 
20:45	78.6	78.6	81.0	73	69.2	0	1	248	0.00	29.748 
20:50	78.5	78.5	80.9	73	69.1	0	1	248	0.00	29.749 
20:55	78.5	78.5	80.9	73	69.1	0	1	248	0.00	29.750 
21:00	78.3	78.3	80.6	74	69.3	0	0	---	0.00	29.751 
21:05	78.3	78.3	80.6	75	69.7	0	0	---	0.00	29.751 
21:10	78.1	78.1	80.3	75	69.5	0	1	248	0.00	29.754 
21:15	78.1	78.1	80.3	75	69.5	0	1	248	0.00	29.753 
21:20	78.1	78.1	80.3	75	69.5	0	0	---	0.00	29.756 
21:25	78.1	78.1	80.4	76	69.9	0	0	---	0.00	29.754 
21:30	77.9	77.9	80.0	76	69.7	0	1	248	0.00	29.751 
21:35	77.9	77.9	80.1	77	70.1	0	1	248	0.00	29.750 
21:40	77.9	77.9	80.0	76	69.7	0	1	248	0.00	29.748 
21:45	77.9	77.9	80.1	77	70.1	0	1	248	0.00	29.747 
21:50	77.7	77.7	79.7	77	69.9	0	0	---	0.00	29.747 
21:55	77.7	77.7	79.7	77	69.9	0	0	---	0.00	29.747 
22:00	77.7	77.7	79.7	77	69.9	0	1	248	0.00	29.747 
22:05	77.9	77.9	80.1	77	70.1	0	1	248	0.00	29.748 
22:10	77.7	77.7	79.7	78	70.3	0	1	248	0.00	29.749 
22:15	77.6	77.6	79.6	79	70.6	1	4	248	0.01	29.750 
22:20	77.0	77.0	78.5	81	70.7	1	4	292	0.00	29.752 
22:25	76.0	76.0	76.7	83	70.4	1	4	292	0.00	29.755 
22:30	74.9	74.9	74.9	84	69.7	0	4	292	0.01	29.756 
22:35	74.0	74.0	74.0	86	69.5	0	2	315	0.00	29.759 
22:40	73.7	73.7	73.7	88	69.9	0	1	315	0.00	29.764 
22:45	73.3	73.3	73.3	88	69.5	0	1	315	0.01	29.765 
22:50	73.0	73.0	73.0	89	69.6	0	1	315	0.00	29.764 
22:55	72.7	72.7	72.7	89	69.3	0	1	315	0.00	29.763 
23:00	72.3	72.3	72.3	90	69.2	0	1	315	0.01	29.761 
23:05	72.1	72.1	72.1	91	69.3	0	1	315	0.00	29.759 
23:10	72.0	72.0	72.0	92	69.5	0	0	---	0.00	29.756 
23:15	71.8	71.8	71.8	92	69.3	0	0	---	0.00	29.758 
23:20	71.6	71.6	71.6	92	69.1	0	0	---	0.01	29.756 
23:25	71.5	71.5	71.5	92	69.0	0	0	---	0.00	29.754 
23:30	71.5	71.5	71.5	92	69.0	0	0	---	0.00	29.754 
23:35	71.3	71.3	71.3	93	69.2	0	0	---	0.01	29.754 
23:40	71.3	71.3	71.3	93	69.2	0	0	---	0.00	29.753 
23:45	71.3	71.3	71.3	93	69.2	0	0	---	0.00	29.754 
23:50	71.3	71.3	71.3	93	69.2	0	0	---	0.00	29.753 
23:55	71.1	71.1	71.1	93	69.0	0	1	315	0.00	29.755 

CoCoRaHS
IN-AL-39
A2 Web Hosting
Creative Commons License
GoDaddy
Look for:

loaded 2017-10-17 09:33:37 • last modified 2010-11-18 10:43:29
Privacy PolicyDisclaimer
• wx.awcolley.com is powered by PmWiki v.2002016 •
• all content (unless otherwise noted) © 2017 A W Colley